Location: Gollag?dem
(16.8053°N, 80.8024°E)
Time: 17:55:04
(UTC+00:00)

CZ-2D R/B - Pass Details

Date: 13 August 2020
Orbit: 522 x 537 km, 97.4° (Epoch: 18 September)

Event Time Altitude Azimuth Distance (km) Brightness Sun altitude
Rises 13:22:00 0° 169° (S) 2,637 6.5 -5.2°
Reaches altitude 10° 13:24:05 10° 169° (S) 1,751 5.6 -5.7°
Maximum altitude 13:27:52 87° 254° (WSW) 527 3.3 -6.5°
Drops below altitude 10° 13:31:40 10° 348° (NNW) 1,760 6.3 -7.4°
Sets 13:33:46 0° 349° (N) 2,652 7.2 -7.9°
